Regional Weather Roundup
Issued by NWS

Home | Current Version | Previous Version | Graphics & Text | Print | Product List | Glossary On
Versions: 1 2 3 4 5 6 7 8 9 10 11 12 13 14 15 16 17 18 19 20 21 22 23 24 25 26 27 28 29 30 31 32 33 34 35 36 37 38 39 40 41 42 43 44 45 46 47 48 49 50
000
ASUS43 KLOT 291321
RWRIL

ILLINOIS REGIONAL WEATHER ROUNDUP
NATIONAL WEATHER SERVICE CHICAGO/ROMEOVILLE IL
800 AM CDT WED JUL 29 2015

NOTE: "FAIR" INDICATES FEW OR NO CLOUDS BELOW 12,000 FEET WITH NO
SIGNIFICANT WEATHER AND/OR OBSTRUCTIONS TO VISIBILITY.

* THESE STATIONS ARE NOT UNDER NWS QUALITY CONTROL. THEY ALSO MAY NOT
  REPORT WEATHER SUCH AS PRECIPITATION OR FOG.

ILZ001-002-007-009-015-016-024-291400-
NORTHWEST ILLINOIS

CITY           SKY/WX    TMP DP  RH WIND       PRES   REMARKS
MOLINE         CLOUDY    76  70  82 NW6       30.01R
STERLING*      PTSUNNY   77  72  83 N7        29.99R
SAVANNA*       CLOUDY    76  67  72 NW7       30.00S
$$

ILZ003-004-008-010-011-017-018-291400-
NORTH CENTRAL ILLINOIS

CITY           SKY/WX    TMP DP  RH WIND       PRES   REMARKS
ROCKFORD       CLOUDY    75  69  81 N8        29.99S
FREEPORT*      PTSUNNY   73  65  77 NW7       30.02R
ROCHELLE*      CLOUDY    74  71  90 NW6       30.00R
DE KALB*       CLOUDY    75  73  91 NW12      29.99R
PERU*          CLOUDY    75  72  90 NW8       29.98S
$$

ILZ005-006-012>014-019>023-291400-
NORTHEAST ILLINOIS

CITY           SKY/WX    TMP DP  RH WIND       PRES   REMARKS
CHICAGO-OHARE  CLOUDY    76  72  87 W9        29.95R
CHICAGO-MIDWAY CLOUDY    78  70  76 W10       29.96R HX  80
AURORA         CLOUDY    77  72  84 NW8       29.97R HAZE
LANSING*       CLOUDY    75  70  84 W6        29.96S
JOLIET*        CLOUDY    75  73  93 W3        29.97S
WAUKEGAN       CLOUDY    76  72  87 W9        29.94R
DUPAGE AIRPORT CLOUDY    76  72  87 NW8       29.96R
KANKAKEE*      CLOUDY    74  74  97 W5        29.97S
WHEELING       CLOUDY    77  71  82 NW8       29.96R
MORRIS*        CLOUDY    75  73  94 CALM      29.95R VSB 1/4
ROMEOVILLE*    CLOUDY    74  72  95 W7        29.97S
NORTHERLY ISL    N/A     77  70  79 W12         N/A
$$

LMZ740>746-291400-
SOUTHERN LAKE MICHIGAN

STATION/POSITION SKY/WX   TEMP    WIND        PRES    VSBY  WAVE
                          AIR SEA DIR/SP/G                  HT/PER
                          (F)     (DEG/KT/KT) (MB)    (MI)  (FT/S)
HARRISON CRIB              76     260/ 13/ 15   N/A
BURNHAM HARBOR             77     240/ 11/ 12   N/A
CALUMET HARBOR             75     220/  4/  6   N/A
BURNS HARBOR               75     230/  8/  8 1014.6R
MICHIGAN CITY              74     230/  8/  8   N/A
MICHIGAN CITY 6N           75 74  260/  8/ 10   N/A           1/ 2
ST. JOSEPH                 75 74  280/  8/  8   N/A           1/ 3
$$

ILZ025>027-034>036-040-047-049-050-058-095>099-291400-
WEST-CENTRAL ILLINOIS

CITY           SKY/WX    TMP DP  RH WIND       PRES   REMARKS
QUINCY         CLOUDY    74  70  87 N12       30.02S
GALESBURG*     CLOUDY    73  70  90 NW7       30.03R
MACOMB*        CLOUDY    74  71  91 NW8       30.05R
JACKSONVILLE*  CLOUDY    76  72  89 NW6       30.01S
PITTSFIELD*    CLOUDY    75  70  85 N6        30.03S
$$

ILZ028>032-037-038-041>044-048-051>054-059>061-291400-
CENTRAL ILLINOIS

CITY           SKY/WX    TMP DP  RH WIND       PRES   REMARKS
PONTIAC        CLOUDY    76  75  95 W10       29.99S
BLOOMINGTON    CLOUDY    76  74  93 NW7       30.01R
DECATUR        CLOUDY    77  73  87 S3        29.99R
PEORIA         PTSUNNY   77  73  87 NW6       30.00R
LACON*         CLOUDY    75  72  91 NW5       29.98S
LINCOLN*       CLOUDY    78  73  87 N3        29.98S
SPRINGFIELD    CLOUDY    79  75  87 NW7       30.00R HX  83
TAYLORVILLE    CLOUDY    77  75  94 W3        29.99S FOG
$$

ILZ033-039-045-046-055>057-062-063-291400-
EAST-CENTRAL ILLINOIS

CITY           SKY/WX    TMP DP  RH WIND       PRES   REMARKS
CHAMPAIGN      CLOUDY    75  73  93 SW3       29.99R
DANVILLE*      CLOUDY    74  72  95 CALM      29.95F
RANTOUL*       CLOUDY    78  75  90 W3        29.99R HX  80
MATTOON        CLOUDY    78  72  81 S6        29.99R HX  80
PARIS*         PTSUNNY   75  74  98 CALM      29.99S
$$

ILZ079-100>102-291400-
SOUTHWEST ILLINOIS

CITY           SKY/WX    TMP DP  RH WIND       PRES   REMARKS
ALTON          PTSUNNY   79  75  89 NW12      30.01R HX  82
BELLEVILLE     MOSUNNY   83  81  93 W9        29.98R HX  96
CAHOKIA*       MOSUNNY   84  76  76 NW10      30.00R HX  93
SPARTA*        SUNNY     82  77  83 W5        30.01R HX  91
$$

ILZ064>066-069>071-074>076-080>082-084>086-088>090-092>094-291400-
SOUTH-CENTRAL ILLINOIS

CITY           SKY/WX    TMP DP  RH WIND       PRES   REMARKS
CARBONDALE     SUNNY     81  77  88 W5        29.99S HX  88
CAIRO*         SUNNY     81  78  92 S3        30.00S HX  89
EFFINGHAM*     PTSUNNY   78  74  87 SE3       30.01R FOG     HX  81
MARION         MOSUNNY   82  79  89 W6        30.00S HX  93
MT. VERNON     MOSUNNY   81  73  78 CALM      30.01R HX  85
CENTRALIA*     MOSUNNY   82  75  81 W6        30.00R HX  88
SALEM*         MOSUNNY   83  77  81 W6        29.99S HX  93
METROPOLIS*    SUNNY     80  76  89 CALM      30.01S HX  85
$$

ILZ067-068-072-073-078-083-087-091-291400-
SOUTHEAST ILLINOIS

CITY           SKY/WX    TMP DP  RH WIND       PRES   REMARKS
LAWRENCEVILLE  PTSUNNY   81  74  79 CALM      30.00S HX  86
FLORA*         PTSUNNY   79  76  91 CALM      29.99R HX  84
FAIRFIELD*     PTSUNNY   78  76  95 CALM      29.99R HX  81
HARRISBURG*    SUNNY     77  77 100 CALM      30.01R
ROBINSON*      PTSUNNY   78  75  92 CALM      30.00S HX  80
CARMI*         MOSUNNY   77  71  82 MISG      29.99S
$$

ABBREVIATIONS USED IN REMARKS
   TC - TEMPERATURE IN CELSIUS
  WCI - WIND CHILL INDEX
   HX - HEAT INDEX
  VSB - VISIBILITY
$$




USA.gov is the U.S. government's official web portal to all federal, state and local government web resources and services.